User: anonymous   Login
Location: A�n Tadlesse
(35.0351°N, 0.5353°E)
Time: 12:28:18
(UTC+00:00)
Language:

STARLINK-46 - Orbit

View from above orbital plane
View from above orbital plane
View from above satellite
View from above satellite

Ground track
Ground track

The orbit data is extracted from the following two-line orbital elements,

1 44246U 19029M   19350.16667824  .00376572  00000-0  13294-2 0  9990
2 44246  52.9924 247.3031 0002536  46.1632 225.6290 15.87583761 32058
Epoch (UTC): 16 December 2019 04:00:01
Eccentricity: 0.0002536
inclination: 52.9924°
perigee height: 307 km
apogee height: 311 km
right ascension of ascending node: 247.3031°
argument of perigee: 46.1632°
revolutions per day: 15.87583761
mean anomaly at epoch: 225.6290°
orbit number at epoch: 3205

The dashed part of the orbit path shows where the satellite is in the earth's shadow,  

DLR